Weather History for KFSO - August, 2013

Change the Weather History Date:

Wednesday, August 28, 2013

  Actual Average (KPBG) Record (KPBG)
Temperature  
Mean Temperature 76 °F 66 °F  
Max Temperature 87 °F 77 °F 94 °F (1953)
Min Temperature 64 °F 54 °F 38 °F (1957)
Degree Days  
Heating Degree Days 0 2  
Month to date heating degree days 21  
Since 1 June heating degree days 117  
Since 1 July heating degree days 32  
Cooling Degree Days 10 3  
Month to date cooling degree days 101  
Year to date cooling degree days 314  
Since 1 June cooling degree days 306  
Growing Degree Days 26 (Base 50)    
Moisture  
Dew Point 66 °F    
Average Humidity 75    
Maximum Humidity 92    
Minimum Humidity 47    
Precipitation  
Precipitation 0.00 in - 3.73 in (2011)
Month to date precipitation  
Year to date precipitation  
Sea Level Pressure  
Sea Level Pressure 29.90 in    
Wind  
Wind Speed 2 mph (North)    
Max Wind Speed 10 mph    
Max Gust Speed -    
Visibility 7 miles    
Events      
T = Trace of Precipitation, MM = Missing Value Source: NWS Daily Summary

Daily Weather History Graph

Daily Weather History Graph

Search for Another Location

Airport or City:

Trip Planner

Search our weather history database for the weather conditions in past years. The results will help you decide how hot, cold, wet, or windy it might be!

Date:

Astronomy

Aug. 28, 2013 Rise Set
Actual Time 6:09 AM EDT 7:36 PM EDT
Civil Twilight 5:39 AM EDT 8:06 PM EDT
Nautical Twilight 5:02 AM EDT 8:43 PM EDT
Astronomical Twilight 4:22 AM EDT 9:22 PM EDT
Moon 11:52 PM EDT (8/28) 2:18 PM EDT (8/28)
Length of Visible Light 14h 27m
Length of Day
13h 26m
Waning Gibbous, 47% of the Moon is Illuminated
Aug 28
Waning Gibbous
Sep 5
New
Sep 12
First Quarter
Sep 19
Full
Sep 26
Last Quarter

Hourly Weather History & Observations

Time (EDT) Temp. Heat Index Dew Point Humidity Pressure Visibility Wind Dir Wind Speed Gust Speed Precip Events Conditions
12:15 AM 69.4 °F - 66.7 °F 91% 29.89 in 1.5 mi Calm Calm - N/A   Mist
12:35 AM 69.4 °F - 66.9 °F 92% 29.89 in 3.0 mi Calm Calm - N/A   Clear
12:55 AM 69.4 °F - 67.1 °F 92% 29.89 in 3.0 mi Calm Calm - N/A   Clear
1:15 AM 68.2 °F - 65.7 °F 92% 29.89 in 2.0 mi Calm Calm - N/A   Clear
1:35 AM 67.1 °F - 64.4 °F 91% 29.89 in 3.0 mi Calm Calm - N/A   Clear
1:55 AM 67.1 °F - 64.4 °F 91% 29.89 in 3.0 mi Calm Calm - N/A   Clear
2:15 AM 67.1 °F - 64.4 °F 91% 29.88 in 3.0 mi Calm Calm - N/A   Clear
2:35 AM 67.1 °F - 64.4 °F 91% 29.88 in 2.5 mi Calm Calm - N/A   Clear
2:55 AM 67.1 °F - 64.4 °F 91% 29.89 in 2.0 mi Calm Calm - N/A   Clear
3:15 AM 67.1 °F - 64.4 °F 91% 29.89 in 3.0 mi Calm Calm - N/A   Scattered Clouds
3:35 AM 67.1 °F - 64.4 °F 91% 29.89 in 3.0 mi Calm Calm - N/A   Mostly Cloudy
3:55 AM 67.1 °F - 64.4 °F 91% 29.88 in 4.0 mi Calm Calm - N/A   Scattered Clouds
4:15 AM 64.9 °F - 62.4 °F 92% 29.88 in 4.0 mi SE 3.5 mph - N/A   Clear
4:35 AM 66.4 °F - 64.0 °F 92% 29.88 in 5.0 mi Calm Calm - N/A   Clear
4:55 AM 64.4 °F - 61.9 °F 92% 29.88 in 4.0 mi ESE 3.5 mph - N/A   Clear
5:15 AM 64.9 °F - 62.4 °F 92% 29.88 in 5.0 mi SE 3.5 mph - N/A   Clear
5:35 AM 64.4 °F - 61.9 °F 92% 29.88 in 5.0 mi SE 3.5 mph - N/A   Clear
5:55 AM 64.4 °F - 61.9 °F 92% 29.88 in 5.0 mi SE 3.5 mph - N/A   Clear
6:15 AM 64.4 °F - 61.9 °F 92% 29.88 in 5.0 mi Calm Calm - N/A   Clear
6:35 AM 64.4 °F - 61.9 °F 92% 29.89 in 3.0 mi Calm Calm - N/A   Clear
6:55 AM 64.4 °F - 62.1 °F 92% 29.90 in 2.5 mi Calm Calm - N/A   Scattered Clouds
7:15 AM 66.2 °F - 63.9 °F 92% 29.90 in 5.0 mi Calm Calm - N/A   Mostly Cloudy
7:35 AM 67.1 °F - 64.4 °F 91% 29.90 in 5.0 mi Calm Calm - N/A   Overcast
7:55 AM 68.5 °F - 65.8 °F 91% 29.90 in 5.0 mi Calm Calm - N/A   Overcast
8:15 AM 69.4 °F - 67.1 °F 92% 29.90 in 5.0 mi Calm Calm - N/A   Overcast
8:35 AM 69.4 °F - 67.1 °F 92% 29.91 in 4.0 mi Calm Calm - N/A   Overcast
8:55 AM 69.4 °F - 67.1 °F 92% 29.91 in 4.0 mi Calm Calm - N/A   Overcast
9:15 AM 69.4 °F - 67.1 °F 92% 29.92 in 2.0 mi Calm Calm - N/A   Overcast
9:35 AM 71.2 °F - 68.7 °F 92% 29.91 in 3.0 mi Calm Calm - N/A   Overcast
9:55 AM 74.5 °F - 70.9 °F 88% 29.91 in 7.0 mi South 3.5 mph - N/A   Mostly Cloudy
10:15 AM 76.8 °F - 70.5 °F 81% 29.91 in 10.0 mi Calm Calm - N/A   Scattered Clouds
10:35 AM 77.0 °F - 68.5 °F 75% 29.91 in 10.0 mi Calm Calm - N/A   Clear
10:55 AM 77.0 °F - 67.8 °F 73% 29.91 in 10.0 mi Calm Calm - N/A   Mostly Cloudy
11:15 AM 77.4 °F - 67.3 °F 71% 29.91 in 10.0 mi Calm Calm - N/A   Mostly Cloudy
11:35 AM 78.3 °F - 68.7 °F 72% 29.90 in 10.0 mi Calm Calm - N/A   Mostly Cloudy
11:55 AM 79.7 °F - 69.3 °F 70% 29.90 in 10.0 mi NNW 3.5 mph - N/A   Mostly Cloudy
12:15 PM 80.8 °F 83.6 °F 68.5 °F 66% 29.90 in 10.0 mi WNW 4.6 mph - N/A   Scattered Clouds
12:35 PM 79.9 °F - 68.0 °F 67% 29.90 in 10.0 mi NW 5.8 mph - N/A   Scattered Clouds
12:55 PM 82.4 °F 85.4 °F 68.0 °F 62% 29.90 in 10.0 mi NW 4.6 mph - N/A   Scattered Clouds
1:15 PM 82.8 °F 85.1 °F 66.4 °F 58% 29.90 in 10.0 mi West 4.6 mph - N/A   Clear
1:35 PM 83.7 °F 86.0 °F 66.4 °F 56% 29.90 in 10.0 mi NNW 4.6 mph - N/A   Clear
1:55 PM 83.8 °F 85.8 °F 65.5 °F 54% 29.90 in 10.0 mi North 8.1 mph - N/A   Clear
2:15 PM 83.8 °F 85.8 °F 65.5 °F 54% 29.90 in 10.0 mi NW 4.6 mph - N/A   Clear
2:35 PM 84.4 °F 86.6 °F 65.8 °F 54% 29.89 in 10.0 mi North 6.9 mph - N/A   Clear
2:55 PM 85.8 °F 88.2 °F 66.2 °F 52% 29.88 in 10.0 mi WNW 4.6 mph - N/A   Clear
3:15 PM 87.1 °F 89.2 °F 65.8 °F 49% 29.88 in 10.0 mi North 5.8 mph - N/A   Clear
3:35 PM 87.1 °F 88.9 °F 65.5 °F 48% 29.87 in 10.0 mi NNW 3.5 mph - N/A   Clear
3:55 PM 87.1 °F 88.6 °F 64.8 °F 47% 29.87 in 10.0 mi NW 4.6 mph - N/A   Clear
4:15 PM 87.6 °F 90.1 °F 66.4 °F 49% 29.87 in 10.0 mi NNW 5.8 mph - N/A   Clear
4:35 PM 86.9 °F 88.9 °F 65.8 °F 49% 29.87 in 10.0 mi North 5.8 mph - N/A   Clear
4:55 PM 87.1 °F 89.5 °F 66.6 °F 50% 29.87 in 10.0 mi Calm Calm - N/A   Clear
5:15 PM 85.5 °F 87.6 °F 66.0 °F 52% 29.87 in 10.0 mi North 6.9 mph - N/A   Clear
5:35 PM 84.0 °F 85.6 °F 64.4 °F 52% 29.87 in 10.0 mi North 6.9 mph - N/A   Clear
5:55 PM 83.8 °F 85.3 °F 64.4 °F 52% 29.88 in 10.0 mi NNE 9.2 mph - N/A   Scattered Clouds
6:15 PM 83.1 °F 84.8 °F 64.8 °F 54% 29.88 in 10.0 mi North 10.4 mph - N/A   Scattered Clouds
6:35 PM 81.1 °F 82.9 °F 65.1 °F 58% 29.89 in 10.0 mi NNE 6.9 mph - N/A   Clear
6:55 PM 80.8 °F 82.5 °F 64.8 °F 58% 29.89 in 10.0 mi NE 4.6 mph - N/A   Clear
7:15 PM 79.7 °F - 64.9 °F 61% 29.90 in 10.0 mi NNE 4.6 mph - N/A   Clear
7:35 PM 77.4 °F - 64.4 °F 64% 29.91 in 10.0 mi North 4.6 mph - N/A   Clear
7:55 PM 77.0 °F - 65.7 °F 68% 29.91 in 10.0 mi North 5.8 mph - N/A   Clear
8:15 PM 74.7 °F - 64.6 °F 71% 29.92 in 10.0 mi NE 3.5 mph - N/A   Clear
8:35 PM 74.5 °F - 65.5 °F 73% 29.92 in 10.0 mi North 4.6 mph - N/A   Clear
8:55 PM 74.5 °F - 65.7 °F 74% 29.93 in 10.0 mi NE 3.5 mph - N/A   Clear
9:15 PM 74.5 °F - 66.7 °F 77% 29.93 in 10.0 mi NNE 3.5 mph - N/A   Clear
9:35 PM - - - N/A% 29.93 in 10.0 mi NE 3.5 mph - N/A   Clear
9:55 PM - - - N/A% 29.94 in 10.0 mi Calm Calm - N/A   Clear
10:15 PM - - - N/A% 29.94 in 10.0 mi Calm Calm - N/A   Clear
10:35 PM - - - N/A% 29.94 in 7.0 mi North 4.6 mph - N/A   Clear
10:55 PM - - - N/A% 29.94 in 7.0 mi Calm Calm - N/A   Clear
11:15 PM - - - N/A% 29.95 in 7.0 mi NW 3.5 mph - N/A   Clear
11:35 PM - - - N/A% 29.95 in 7.0 mi NNW 3.5 mph - N/A   Clear
11:55 PM - - - N/A% 29.96 in 7.0 mi NNE 4.6 mph - N/A   Clear